Weather History for Drummond Island, MI

Change the Weather History Date:

Thursday, May 30, 2013

  Actual Average (KCIU) Record (KCIU)
Temperature  
Mean Temperature 64 °F -  
Max Temperature 80 °F 66 °F 113 °F (2001)
Min Temperature 48 °F 40 °F 28 °F (1984)
Degree Days  
Heating Degree Days 1    
Growing Degree Days 14 (Base 50)    
Moisture  
Dew Point 57 °F    
Average Humidity 86    
Maximum Humidity 100    
Minimum Humidity 57    
Precipitation  
Precipitation 0.00 in - - ()
Sea Level Pressure  
Sea Level Pressure 29.93 in    
Wind  
Wind Speed 5 mph (SSE)    
Max Wind Speed 10 mph    
Max Gust Speed 17 mph    
Visibility 7 miles    
Events Fog , Rain    
Averages and records for this station are not official NWS values.
T = Trace of Precipitation, MM = Missing Value Source: NWS Daily Summary

Daily Weather History Graph

Daily Weather History Graph

Search for Another Location

Airport:

Trip Planner

Search our weather history database for the weather conditions in past years. The results will help you decide how hot, cold, wet, or windy it might be!

Date:

Astronomy

May. 30, 2013 Rise Set
Actual Time 5:48 AM EDT 9:16 PM EDT
Civil Twilight 5:11 AM EDT 9:54 PM EDT
Nautical Twilight 4:22 AM EDT 10:43 PM EDT
Astronomical Twilight 3:19 AM EDT 11:47 PM EDT
Moon 1:05 AM EDT (5/30) 12:09 PM EDT (5/30)
Length of Visible Light 16h 42m
Length of Day
15h 28m
Waning Gibbous, 62% of the Moon is Illuminated
May 30
Waning Gibbous
May 31
Last Quarter
Jun 8
New
Jun 16
First Quarter
Jun 23
Full

Hourly Weather History & Observations

Time (EDT) Temp. Heat Index Dew Point Humidity Pressure Visibility Wind Dir Wind Speed Gust Speed Precip Events Conditions
12:16 AM 50.5 °F - 50.4 °F 99% 29.96 in 7.0 mi SE 3.5 mph - N/A   Overcast
12:36 AM 50.0 °F - 50.0 °F 100% 29.95 in 7.0 mi SE 4.6 mph - N/A   Mostly Cloudy
12:56 AM 50.0 °F - 50.0 °F 100% 29.94 in 5.0 mi SE 3.5 mph - N/A   Mostly Cloudy
1:16 AM 49.8 °F - 49.8 °F 100% 29.95 in 5.0 mi SSE 4.6 mph - N/A   Mostly Cloudy
1:36 AM 49.1 °F - 49.1 °F 100% 29.96 in 3.0 mi SSE 3.5 mph - N/A   Overcast
1:56 AM 48.6 °F - 48.6 °F 100% 29.96 in 0.8 mi Calm Calm - N/A   Overcast
2:16 AM 48.6 °F - 48.6 °F 100% 29.97 in 0.8 mi SSE 4.6 mph - N/A   Overcast
2:36 AM 48.6 °F - 48.6 °F 100% 29.97 in 0.8 mi SE 4.6 mph - N/A   Overcast
2:56 AM 48.6 °F - 48.6 °F 100% 29.97 in 0.8 mi SSE 4.6 mph - N/A   Overcast
3:16 AM 48.7 °F - 48.7 °F 100% 29.96 in 0.8 mi SE 3.5 mph - N/A   Overcast
3:36 AM 49.1 °F - 49.1 °F 100% 29.96 in 0.5 mi SSE 6.9 mph - N/A Fog Fog
3:56 AM 49.1 °F - 49.1 °F 100% 29.96 in 0.5 mi SSE 4.6 mph - N/A Fog Fog
4:16 AM 49.1 °F - 49.1 °F 100% 29.95 in 0.5 mi SE 3.5 mph - N/A Fog Fog
4:35 AM 49.5 °F - 49.5 °F 100% 29.96 in 0.8 mi SSE 4.6 mph - N/A   Overcast
4:56 AM 50.0 °F - 50.0 °F 100% 29.96 in 0.8 mi SE 4.6 mph - N/A   Overcast
5:16 AM 50.0 °F - 50.0 °F 100% 29.96 in 0.8 mi SSE 5.8 mph - N/A   Overcast
5:35 AM 50.0 °F - 50.0 °F 100% 29.96 in 0.8 mi SE 8.1 mph - N/A   Overcast
5:56 AM 49.5 °F - 49.5 °F 100% 29.96 in 0.5 mi SE 9.2 mph - N/A Fog Fog
6:16 AM 49.5 °F - 49.5 °F 100% 29.96 in 0.8 mi SSE 6.9 mph - N/A   Overcast
6:35 AM 50.5 °F - 50.5 °F 100% 29.96 in 0.8 mi SE 9.2 mph - N/A   Overcast
6:56 AM 50.5 °F - 50.5 °F 100% 29.97 in 0.8 mi SE 8.1 mph - N/A   Overcast
7:16 AM 50.5 °F - 50.5 °F 100% 29.98 in 0.8 mi SE 6.9 mph - N/A   Overcast
7:35 AM 50.9 °F - 50.9 °F 100% 29.97 in 0.8 mi SE 6.9 mph - N/A   Overcast
7:56 AM 51.8 °F - 51.8 °F 100% 29.97 in 1.0 mi SSE 8.1 mph - N/A   Overcast
8:16 AM 51.8 °F - 51.8 °F 100% 29.97 in 0.5 mi SSE 10.4 mph - N/A Fog Fog
8:36 AM 52.7 °F - 52.7 °F 100% 29.96 in 0.5 mi SE 6.9 mph - N/A Fog Fog
8:56 AM 53.2 °F - 53.2 °F 100% 29.96 in 1.0 mi SE 8.1 mph - N/A   Overcast
9:15 AM 54.1 °F - 54.1 °F 100% 29.96 in 2.0 mi SSE 6.9 mph - N/A   Overcast
9:36 AM 54.9 °F - 54.9 °F 100% 29.95 in 10.0 mi SSE 5.8 mph - N/A   Overcast
9:56 AM 57.2 °F - 56.8 °F 99% 29.95 in 10.0 mi SE 6.9 mph - N/A   Scattered Clouds
10:15 AM 59.0 °F - 56.7 °F 92% 29.95 in 10.0 mi SE 5.8 mph - N/A   Clear
10:36 AM 61.0 °F - 57.6 °F 88% 29.95 in 10.0 mi SE 4.6 mph - N/A   Clear
10:56 AM 61.9 °F - 57.4 °F 85% 29.95 in 10.0 mi SE 3.5 mph - N/A   Clear
11:15 AM 63.5 °F - 58.1 °F 83% 29.95 in 10.0 mi SE 4.6 mph - N/A   Clear
11:36 AM 65.3 °F - 59.2 °F 81% 29.96 in 10.0 mi SSE 4.6 mph - N/A   Clear
11:55 AM 67.1 °F - 59.7 °F 77% 29.95 in 10.0 mi SE 3.5 mph - N/A   Scattered Clouds
12:16 PM 69.1 °F - 60.4 °F 74% 29.96 in 10.0 mi Calm Calm - N/A   Clear
12:36 PM 70.7 °F - 61.2 °F 72% 29.95 in 10.0 mi Calm Calm - N/A   Clear
12:55 PM 71.6 °F - 61.7 °F 71% 29.95 in 10.0 mi Calm Calm - N/A   Clear
1:16 PM 72.9 °F - 62.1 °F 69% 29.95 in 10.0 mi North 3.5 mph - N/A   Clear
1:36 PM 73.9 °F - 62.6 °F 68% 29.94 in 10.0 mi Calm Calm - N/A   Clear
1:56 PM 75.0 °F - 62.8 °F 66% 29.93 in 10.0 mi North 3.5 mph - N/A   Clear
2:16 PM 74.1 °F - 61.9 °F 65% 29.93 in 10.0 mi North 3.5 mph - N/A   Scattered Clouds
2:36 PM 72.9 °F - 61.9 °F 68% 29.93 in 10.0 mi Calm Calm - N/A   Overcast
2:56 PM 75.7 °F - 64.8 °F 69% 29.93 in 10.0 mi ESE 6.9 mph - N/A   Mostly Cloudy
3:16 PM 77.4 °F - 65.5 °F 67% 29.92 in 10.0 mi SSE 5.8 mph - N/A   Scattered Clouds
3:35 PM 79.3 °F - 65.8 °F 63% 29.91 in 10.0 mi SE 4.6 mph - N/A   Clear
3:56 PM 80.1 °F 82.0 °F 65.7 °F 61% 29.90 in 10.0 mi SE 8.1 mph - N/A   Clear
4:16 PM 80.4 °F 82.2 °F 64.8 °F 59% 29.90 in 10.0 mi SE 8.1 mph - N/A   Clear
4:35 PM 79.3 °F - 63.3 °F 58% 29.89 in 10.0 mi ESE 10.4 mph - N/A   Clear
4:56 PM 79.7 °F - 63.7 °F 58% 29.88 in 10.0 mi SE 5.8 mph - N/A   Clear
5:16 PM 80.1 °F 81.6 °F 63.5 °F 57% 29.88 in 10.0 mi SSE 9.2 mph - N/A   Clear
5:35 PM 78.1 °F - 62.4 °F 58% 29.88 in 10.0 mi SE 5.8 mph - N/A   Clear
5:56 PM 73.0 °F - 61.3 °F 67% 29.88 in 10.0 mi South 8.1 mph - N/A   Clear
6:16 PM 66.7 °F - 58.1 °F 74% 29.90 in 10.0 mi South 10.4 mph 17.3 mph N/A   Scattered Clouds
6:36 PM 64.8 °F - 56.8 °F 75% 29.89 in 10.0 mi South 8.1 mph - N/A Rain Light Rain
6:56 PM 64.4 °F - 59.4 °F 84% 29.87 in 10.0 mi South 5.8 mph - N/A Rain Light Rain
7:15 PM 69.6 °F - 61.7 °F 76% 29.87 in 10.0 mi South 8.1 mph - N/A   Clear
7:36 PM 71.1 °F - 62.4 °F 74% 29.88 in 10.0 mi SSW 5.8 mph - N/A   Clear
7:56 PM 71.2 °F - 61.7 °F 72% 29.88 in 10.0 mi South 4.6 mph - N/A   Clear
8:15 PM 71.4 °F - 61.9 °F 72% 29.88 in 10.0 mi South 4.6 mph - N/A   Scattered Clouds
8:36 PM 70.7 °F - 62.4 °F 75% 29.89 in 10.0 mi South 5.8 mph - N/A   Scattered Clouds
8:56 PM 68.4 °F - 61.7 °F 79% 29.88 in 10.0 mi SSE 5.8 mph - N/A   Clear
9:15 PM 65.8 °F - 60.8 °F 84% 29.89 in 10.0 mi SSE 5.8 mph - N/A   Clear
9:36 PM 63.7 °F - 60.1 °F 88% 29.89 in 10.0 mi SSE 6.9 mph - N/A   Clear
9:56 PM 63.3 °F - 60.4 °F 90% 29.89 in 10.0 mi SSE 6.9 mph - N/A   Clear
10:16 PM 63.7 °F - 61.2 °F 91% 29.90 in 10.0 mi SSE 8.1 mph - N/A   Clear
10:36 PM 65.3 °F - 62.4 °F 90% 29.89 in 10.0 mi South 5.8 mph - N/A   Clear
10:56 PM 65.3 °F - 62.6 °F 91% 29.89 in 10.0 mi SSE 6.9 mph - N/A   Clear
11:16 PM 65.5 °F - 63.1 °F 92% 29.89 in 10.0 mi SSE 8.1 mph - N/A   Clear
11:36 PM 65.3 °F - 63.1 °F 93% 29.89 in 10.0 mi SSE 6.9 mph - N/A   Clear
11:55 PM 65.3 °F - 63.7 °F 94% 29.88 in 10.0 mi South 5.8 mph - N/A   Clear